星链-33944 (STARLINK-33944)

导读

STARLINK-33944是美国于2025年6月5日发射的星链卫星,隶属于SpaceX公司的星链星座项目。星链计划旨在构建全球卫星互联网星座,为全球偏远及网络欠发达地区提供高速网络接入服务,该卫星入轨后将进一步扩充星链星座的规模,提升星座的全球覆盖能力与服务稳定性。

基本信息
目录编号:
64209
目录名称:
STARLINK-33944
国际标识:
2025-117G
轨道中心:
EARTH
卫星名称:
星链-33944
卫星全名:
星链-33944 (STARLINK-33944)
卫星状态:
在轨 (已飞行461 天)
发射日期:
2025-05-31 UTC
国别 :
美国 (US)
星等 :
--
轨道信息
数据来源 国际轨道数据
星历时间: 2026-09-03T11:42:05+0800
1天前
查看轨道信息
半长轴: 6840.835km
偏心率: 0.0002266
轨道倾角: 53.158°
近地点辐角 107.498°
升交点赤经 294.786°
平近点角 252.627°
近地点: 461.147km
远地点: 464.249km
周期: 93.848分钟
每日圈数: 15.34402
详细信息
固有亮度:
5
最大亮度:
2.5
卫星平台:
Starlink V1.0
覆盖范围:
全球
运营商:
太空探索技术公司
运营商所在国:
美国
制造商(研发单位):
太空探索技术公司
制造商所在国:
美国
使用方式:
暂无
卫星简介
Starlink 计划是 SpaceX 推出的全球卫星互联网项目,通过发射低轨道卫星,为全球尤其是偏远地区提供高速、低延迟的互联网服务。自 2019 年起,Starlink 已部署数千颗卫星,旨在缩小全球数字鸿沟,推动互联网普及。该项目还为军事、航空等行业提供通信支持,带来广泛经济效益。
2D轨道图
3D轨道图
轨道高度分析图
轨道倾角分析图
轨道综合分析图
查看轨道综合分析图
交会数据列表
事件ID 空间交会对象 最接近时刻(TCA) 交会距离 交会风险概率(CRP) 交会风险指数(CRI) 操作
CDM_260828-145506-420906-620221
2026-08-28T
14:55:20+0000
0.631 km
远距离
9.961429E-5 中风险 0.75
CDM_260905-134905-174806-420921
2026-09-05T
13:49:20+0000
0.763 km
远距离
4.105621E-5 中风险 0.67
CDM_260905-120405-363306-420921
2026-09-05T
12:04:20+0000
2.931 km
极远距离
1.21462E-6 低风险 0.37
CDM_260905-121505-174806-420921
2026-09-05T
12:15:32+0000
2.987 km
极远距离
9.101052E-7 极低风险 0.34